San Antonio Del Tachira Airport

Jump to: basic info | weather | frequencies | runways | comments

Related pages: nearby airports | nearby navaids | notams | map

Basic information (top)

Codes: SVZ SVSA
Location: lon 7.840830, lat -72.439697, elev 1,312 ft / 400 m msl
Status: medium_airport

Weather (top)

Current conditions (rec'd 2014/09/20 19:00Z):

SVSA 201900Z /////KT 9999 FEW020 SCT090 35/16 Q1010

Airport forecast (rec'd 2014/09/09 00:00Z):

TAF SVSA 082200Z 0900/1000 12006KT 9999 SCT020 TX33/18Z TN25/09Z 
      BECMG 0912/0916 00000KT 9999 DZ BKN020

Frequencies (top)

Verify before use: may be inaccurate or out of date.

GND: 121.9 MHz (GND)
TWR: 118.5 MHz (TWR)

Runways (top)

17/35: 6,135 x 131 ft (1,870 x 40 m) — paved — lighted

Latest comments (top)

No comments yet for San Antonio Del Tachira Airport

More... (top)

See also NOTAMs and nearby airports and navaids, or visit the San Antonio Del Tachira Airport page at the main OurAirports website..